EZY3488 LIEO-LFLL

Flight info

Callsign EZY3488
Flight time 1h 13m
Altitude 34000
Route TEREZ DCT CORSI DCT PIGOS UM616 KOTIT DCT PINED
Aircraft A319/M-SDE3FGHIRWY/LB1

Departure

Time 2026-04-28 08:55
Airport Olbia Costa Smeralda Airport (LIEO)

Arrival

Time 2026-04-28 10:09
Airport Lyon Saint-Exupéry Airport (LFLL)
Time Latitude Longitude Altitude Speed Heading
2026-04-28 08:47 40.90167 9.51762 48 ft 0 kts 85°
2026-04-28 08:48 40.90166 9.51744 48 ft 3 kts 85°
2026-04-28 08:48 40.90165 9.51713 48 ft 3 kts 99°
2026-04-28 08:48 40.90178 9.51689 48 ft 3 kts 150°
2026-04-28 08:49 40.90200 9.51685 48 ft 3 kts 196°
2026-04-28 08:49 40.90202 9.51686 47 ft 0 kts 198°
2026-04-28 08:51 40.90201 9.51686 47 ft 0 kts 198°
2026-04-28 08:51 40.90184 9.51673 48 ft 5 kts 221°
2026-04-28 08:51 40.90151 9.51624 47 ft 9 kts 235°
2026-04-28 08:51 40.90111 9.51543 48 ft 13 kts 236°
2026-04-28 08:52 40.90042 9.51505 48 ft 13 kts 161°
2026-04-28 08:52 40.89952 9.51504 47 ft 15 kts 206°
2026-04-28 08:52 40.89880 9.51399 48 ft 17 kts 234°
2026-04-28 08:52 40.89813 9.51269 48 ft 20 kts 236°
2026-04-28 08:53 40.89742 9.51126 48 ft 21 kts 238°
2026-04-28 08:53 40.89662 9.50968 48 ft 23 kts 234°
2026-04-28 08:53 40.89576 9.50808 48 ft 23 kts 236°
2026-04-28 08:53 40.89489 9.50639 48 ft 24 kts 236°
2026-04-28 08:54 40.89400 9.50483 48 ft 23 kts 224°
2026-04-28 08:54 40.89286 9.50496 48 ft 18 kts 124°
2026-04-28 08:54 40.89269 9.50612 48 ft 12 kts 66°
2026-04-28 08:54 40.89280 9.50637 48 ft 1 kts 56°
2026-04-28 08:55 40.89397 9.50860 48 ft 70 kts 56°
2026-04-28 08:55 40.89762 9.51557 48 ft 134 kts 55°
2026-04-28 08:55 40.90270 9.52560 445 ft 151 kts 56°
2026-04-28 08:55 40.90813 9.53594 1025 ft 155 kts 54°
2026-04-28 08:56 40.91399 9.54629 1711 ft 158 kts 54°
2026-04-28 08:56 40.92001 9.55718 2331 ft 167 kts 58°
2026-04-28 08:56 40.92617 9.56920 2831 ft 182 kts 59°
2026-04-28 08:56 40.93298 9.58251 3344 ft 197 kts 58°
2026-04-28 08:57 40.94120 9.59644 3849 ft 216 kts 44°
2026-04-28 08:57 40.95463 9.60414 4244 ft 244 kts
2026-04-28 08:57 40.97144 9.59884 4821 ft 264 kts 328°
2026-04-28 08:57 40.98347 9.58276 5427 ft 276 kts 303°
2026-04-28 08:58 40.99271 9.56366 6240 ft 281 kts 301°
2026-04-28 08:58 41.00236 9.54440 7129 ft 283 kts 304°
2026-04-28 08:58 41.01283 9.52533 8010 ft 285 kts 306°
2026-04-28 08:58 41.02370 9.50693 8861 ft 288 kts 308°
2026-04-28 08:59 41.03525 9.48837 9696 ft 291 kts 309°
2026-04-28 08:59 41.04681 9.47035 10483 ft 294 kts 310°
2026-04-28 08:59 41.05901 9.45161 11043 ft 307 kts 310°
2026-04-28 08:59 41.07182 9.43212 11497 ft 322 kts 311°
2026-04-28 09:00 41.08516 9.41199 12147 ft 329 kts 311°
2026-04-28 09:00 41.09861 9.39173 12893 ft 332 kts 311°
2026-04-28 09:00 41.11232 9.37111 13630 ft 335 kts 311°
2026-04-28 09:00 41.12642 9.34990 14339 ft 339 kts 311°
2026-04-28 09:01 41.14105 9.32790 15032 ft 343 kts 311°
2026-04-28 09:01 41.15688 9.30408 15758 ft 347 kts 311°
2026-04-28 09:01 41.17253 9.28050 16472 ft 351 kts 311°
2026-04-28 09:01 41.18861 9.25625 17146 ft 355 kts 311°
2026-04-28 09:02 41.20455 9.23221 17842 ft 359 kts 311°
2026-04-28 09:02 41.22102 9.20733 18551 ft 362 kts 311°
2026-04-28 09:02 41.23734 9.18265 19217 ft 365 kts 311°
2026-04-28 09:02 41.25401 9.15741 19905 ft 368 kts 312°
2026-04-28 09:03 41.27094 9.13178 20609 ft 370 kts 312°
2026-04-28 09:03 41.28792 9.10602 21296 ft 372 kts 312°
2026-04-28 09:03 41.30489 9.08027 21944 ft 375 kts 312°
2026-04-28 09:03 41.32096 9.05298 22588 ft 378 kts 301°
2026-04-28 09:04 41.33105 9.02099 23194 ft 383 kts 285°
2026-04-28 09:04 41.33419 8.98609 23803 ft 387 kts 272°
2026-04-28 09:04 41.33409 8.95017 24415 ft 390 kts 270°
2026-04-28 09:04 41.33367 8.91386 24983 ft 393 kts 270°
2026-04-28 09:05 41.33356 8.87762 25539 ft 395 kts 274°
2026-04-28 09:05 41.33879 8.84247 26035 ft 394 kts 292°
2026-04-28 09:05 41.35283 8.81113 26558 ft 394 kts 311°
2026-04-28 09:05 41.37364 8.78757 27035 ft 396 kts 329°
2026-04-28 09:06 41.39821 8.77173 27529 ft 398 kts 335°
2026-04-28 09:06 41.42353 8.75674 28016 ft 401 kts 336°
2026-04-28 09:06 41.44900 8.74166 28505 ft 403 kts 335°
2026-04-28 09:06 41.47380 8.72686 28953 ft 405 kts 335°
2026-04-28 09:07 41.49810 8.71225 29354 ft 408 kts 335°
2026-04-28 09:07 41.52349 8.69691 29767 ft 410 kts 335°
2026-04-28 09:07 41.54935 8.68123 30197 ft 412 kts 335°
2026-04-28 09:07 41.57559 8.66528 30611 ft 414 kts 334°
2026-04-28 09:08 41.60152 8.64950 31109 ft 413 kts 334°
2026-04-28 09:08 41.62754 8.63363 31663 ft 411 kts 334°
2026-04-28 09:08 41.65353 8.61776 32186 ft 409 kts 334°
2026-04-28 09:08 41.67928 8.60201 32659 ft 409 kts 334°
2026-04-28 09:09 41.70489 8.58634 33045 ft 410 kts 334°
2026-04-28 09:09 41.73103 8.57032 33392 ft 412 kts 334°
2026-04-28 09:09 41.75721 8.55425 33747 ft 413 kts 334°
2026-04-28 09:09 41.78323 8.53827 34008 ft 414 kts 334°
2026-04-28 09:10 41.80946 8.52215 34022 ft 416 kts 334°
2026-04-28 09:10 41.86175 8.48999 34023 ft 415 kts 334°
2026-04-28 09:11 41.91420 8.45766 34024 ft 415 kts 334°
2026-04-28 09:11 41.96661 8.42530 34025 ft 416 kts 334°
2026-04-28 09:12 42.01912 8.39282 34028 ft 415 kts 334°
2026-04-28 09:12 42.07155 8.36033 34027 ft 415 kts 334°
2026-04-28 09:13 42.12346 8.32811 34029 ft 415 kts 333°
2026-04-28 09:13 42.17587 8.29551 34029 ft 415 kts 333°
2026-04-28 09:14 42.22812 8.26296 34033 ft 415 kts 333°
2026-04-28 09:14 42.28042 8.23032 34035 ft 415 kts 333°
2026-04-28 09:15 42.33269 8.19762 34033 ft 415 kts 333°
2026-04-28 09:15 42.38518 8.16474 34032 ft 415 kts 333°
2026-04-28 09:16 42.43745 8.13193 34033 ft 415 kts 333°
2026-04-28 09:16 42.48968 8.09908 34032 ft 415 kts 333°
2026-04-28 09:17 42.54201 8.06613 34037 ft 415 kts 333°
2026-04-28 09:17 42.59427 8.03313 34038 ft 415 kts 333°
2026-04-28 09:18 42.64637 8.00019 34032 ft 415 kts 333°
2026-04-28 09:18 42.69861 7.96710 34037 ft 415 kts 333°
2026-04-28 09:19 42.75070 7.93403 34028 ft 415 kts 333°
2026-04-28 09:19 42.80291 7.90084 34036 ft 415 kts 333°
2026-04-28 09:20 42.85503 7.86763 34034 ft 415 kts 333°
2026-04-28 09:20 42.90679 7.83460 34035 ft 415 kts 332°
2026-04-28 09:21 42.95864 7.80144 34028 ft 416 kts 333°
2026-04-28 09:21 43.00990 7.76860 34032 ft 416 kts 332°
2026-04-28 09:22 43.06000 7.73645 34033 ft 416 kts 332°
2026-04-28 09:22 43.10781 7.70571 34028 ft 416 kts 332°
2026-04-28 09:23 43.15511 7.67524 34030 ft 416 kts 332°
2026-04-28 09:23 43.20351 7.64401 34028 ft 416 kts 332°
2026-04-28 09:24 43.25029 7.61379 34027 ft 416 kts 332°
2026-04-28 09:24 43.29599 7.58419 34027 ft 416 kts 332°
2026-04-28 09:25 43.34145 7.55470 34027 ft 416 kts 332°
2026-04-28 09:25 43.38727 7.52494 34025 ft 416 kts 332°
2026-04-28 09:26 43.43308 7.49513 34028 ft 416 kts 332°
2026-04-28 09:26 43.47859 7.46545 34033 ft 417 kts 332°
2026-04-28 09:27 43.54709 7.42063 34031 ft 416 kts 331°
2026-04-28 09:27 43.59122 7.38597 34031 ft 413 kts 324°
2026-04-28 09:28 43.63129 7.34443 34038 ft 412 kts 316°
2026-04-28 09:28 43.66697 7.29658 34037 ft 409 kts 309°
2026-04-28 09:29 43.69939 7.24350 34038 ft 409 kts 307°
2026-04-28 09:29 43.73108 7.19002 34045 ft 409 kts 307°
2026-04-28 09:30 43.76271 7.13671 34039 ft 410 kts 307°
2026-04-28 09:30 43.79445 7.08329 34051 ft 410 kts 307°
2026-04-28 09:31 43.82599 7.03014 34050 ft 410 kts 307°
2026-04-28 09:31 43.85775 6.97658 34059 ft 410 kts 307°
2026-04-28 09:32 43.88946 6.92300 34061 ft 409 kts 307°
2026-04-28 09:32 43.92058 6.87033 34060 ft 409 kts 307°
2026-04-28 09:33 43.95229 6.81654 34058 ft 410 kts 307°
2026-04-28 09:33 43.98403 6.76261 34058 ft 409 kts 307°
2026-04-28 09:34 44.01566 6.70877 34056 ft 409 kts 307°
2026-04-28 09:34 44.04704 6.65528 34058 ft 408 kts 307°
2026-04-28 09:35 44.07846 6.60158 34062 ft 408 kts 306°
2026-04-28 09:35 44.11010 6.54741 34069 ft 408 kts 306°
2026-04-28 09:36 44.14120 6.49406 34069 ft 408 kts 306°
2026-04-28 09:36 44.17206 6.44105 33756 ft 402 kts 306°
2026-04-28 09:37 44.18737 6.41469 33167 ft 402 kts 306°
2026-04-28 09:37 44.20246 6.38870 32608 ft 402 kts 306°
2026-04-28 09:37 44.21790 6.36210 32073 ft 400 kts 306°
2026-04-28 09:37 44.23289 6.33626 31485 ft 401 kts 306°
2026-04-28 09:38 44.24815 6.30992 30831 ft 402 kts 306°
2026-04-28 09:38 44.26322 6.28390 30169 ft 404 kts 306°
2026-04-28 09:38 44.27864 6.25724 29609 ft 402 kts 306°
2026-04-28 09:38 44.29372 6.23117 29157 ft 398 kts 306°
2026-04-28 09:39 44.30381 6.21369 28837 ft 396 kts 306°
2026-04-28 09:39 44.31552 6.19341 28450 ft 393 kts 306°
2026-04-28 09:39 44.33039 6.16760 27984 ft 390 kts 306°
2026-04-28 09:39 44.34518 6.14192 27558 ft 386 kts 306°
2026-04-28 09:40 44.35959 6.11687 27148 ft 383 kts 306°
2026-04-28 09:40 44.37402 6.09178 26743 ft 379 kts 306°
2026-04-28 09:40 44.38842 6.06673 26352 ft 375 kts 306°
2026-04-28 09:40 44.40236 6.04244 25963 ft 372 kts 306°
2026-04-28 09:41 44.41627 6.01816 25576 ft 368 kts 306°
2026-04-28 09:41 44.43034 5.99359 25184 ft 365 kts 306°
2026-04-28 09:41 44.44397 5.96978 24802 ft 363 kts 306°
2026-04-28 09:41 44.45775 5.94567 24412 ft 360 kts 306°
2026-04-28 09:42 44.47134 5.92187 24030 ft 358 kts 306°
2026-04-28 09:42 44.48507 5.89782 23647 ft 355 kts 306°
2026-04-28 09:42 44.49833 5.87457 23276 ft 353 kts 306°
2026-04-28 09:42 44.51182 5.85090 22894 ft 351 kts 306°
2026-04-28 09:43 44.52502 5.82770 22520 ft 349 kts 306°
2026-04-28 09:43 44.53829 5.80437 22150 ft 348 kts 306°
2026-04-28 09:43 44.55132 5.78144 21784 ft 346 kts 306°
2026-04-28 09:43 44.56464 5.75797 21398 ft 345 kts 306°
2026-04-28 09:44 44.57762 5.73510 21032 ft 343 kts 306°
2026-04-28 09:44 44.59100 5.71278 20669 ft 344 kts 312°
2026-04-28 09:44 44.60735 5.69395 20278 ft 347 kts 324°
2026-04-28 09:44 44.62618 5.68037 19886 ft 350 kts 336°
2026-04-28 09:45 44.64629 5.67109 19518 ft 351 kts 340°
2026-04-28 09:45 44.66699 5.66257 19154 ft 349 kts 341°
2026-04-28 09:45 44.68711 5.65441 18799 ft 348 kts 341°
2026-04-28 09:45 44.70776 5.64596 18414 ft 347 kts 340°
2026-04-28 09:46 44.72784 5.63764 18044 ft 346 kts 340°
2026-04-28 09:46 44.74826 5.62906 17690 ft 345 kts 340°
2026-04-28 09:46 44.76820 5.62061 17345 ft 344 kts 340°
2026-04-28 09:46 44.78790 5.61224 16978 ft 343 kts 340°
2026-04-28 09:47 44.80810 5.60362 16610 ft 343 kts 341°
2026-04-28 09:47 44.82769 5.59526 16237 ft 342 kts 341°
2026-04-28 09:47 44.84769 5.58671 15871 ft 341 kts 341°
2026-04-28 09:47 44.86739 5.57830 15508 ft 341 kts 341°
2026-04-28 09:48 44.88727 5.56979 15141 ft 340 kts 341°
2026-04-28 09:48 44.90742 5.56114 14751 ft 339 kts 341°
2026-04-28 09:48 44.92725 5.55263 14390 ft 338 kts 341°
2026-04-28 09:48 44.94710 5.54412 14020 ft 337 kts 341°
2026-04-28 09:49 44.96676 5.53568 13653 ft 336 kts 342°
2026-04-28 09:49 44.98655 5.52762 13273 ft 335 kts 345°
2026-04-28 09:49 45.00670 5.52241 12920 ft 333 kts 352°
2026-04-28 09:49 45.02679 5.52056 12880 ft 331 kts 358°
2026-04-28 09:50 45.04722 5.52026 12898 ft 332 kts 359°
2026-04-28 09:50 45.06787 5.52036 12918 ft 332 kts 359°
2026-04-28 09:50 45.08832 5.52043 12939 ft 332 kts 359°
2026-04-28 09:50 45.10864 5.52043 12949 ft 333 kts 359°
2026-04-28 09:51 45.12912 5.52032 12960 ft 333 kts 359°
2026-04-28 09:51 45.14949 5.52018 12966 ft 333 kts 359°
2026-04-28 09:51 45.16996 5.51996 13005 ft 333 kts 359°
2026-04-28 09:51 45.19063 5.51973 13007 ft 333 kts 359°
2026-04-28 09:52 45.21073 5.51951 13001 ft 333 kts 359°
2026-04-28 09:52 45.23124 5.51927 12997 ft 333 kts 358°
2026-04-28 09:52 45.25155 5.51906 13026 ft 333 kts 359°
2026-04-28 09:52 45.27171 5.51790 13020 ft 333 kts 354°
2026-04-28 09:53 45.29180 5.51398 13028 ft 332 kts 348°
2026-04-28 09:53 45.31149 5.50751 13022 ft 331 kts 344°
2026-04-28 09:53 45.33088 5.50008 13021 ft 331 kts 343°
2026-04-28 09:53 45.35006 5.49178 13040 ft 331 kts 339°
2026-04-28 09:54 45.36862 5.48062 13029 ft 330 kts 332°
2026-04-28 09:54 45.38607 5.46687 13014 ft 329 kts 328°
2026-04-28 09:54 45.40308 5.45197 13009 ft 329 kts 326°
2026-04-28 09:54 45.42020 5.43660 13026 ft 329 kts 326°
2026-04-28 09:55 45.43713 5.42147 13005 ft 329 kts 326°
2026-04-28 09:55 45.45412 5.40645 13017 ft 329 kts 327°
2026-04-28 09:55 45.47081 5.39174 12909 ft 330 kts 327°
2026-04-28 09:55 45.48789 5.37678 12465 ft 331 kts 328°
2026-04-28 09:56 45.50621 5.36438 12049 ft 332 kts 340°
2026-04-28 09:56 45.52555 5.35808 11666 ft 332 kts 353°
2026-04-28 09:56 45.54548 5.35615 11295 ft 331 kts 358°
2026-04-28 09:56 45.56573 5.35536 10917 ft 328 kts 358°
2026-04-28 09:57 45.58560 5.35472 10556 ft 326 kts 358°
2026-04-28 09:57 45.60523 5.35391 10237 ft 322 kts 358°
2026-04-28 09:57 45.62466 5.35293 10100 ft 312 kts 358°
2026-04-28 09:57 45.64320 5.35190 10004 ft 300 kts 358°
2026-04-28 09:58 45.66127 5.35085 9840 ft 293 kts 358°
2026-04-28 09:58 45.67919 5.34978 9313 ft 299 kts 357°
2026-04-28 09:58 45.69771 5.34868 8888 ft 300 kts 357°
2026-04-28 09:58 45.71580 5.34760 8604 ft 296 kts 357°
2026-04-28 09:59 45.73371 5.34653 8322 ft 292 kts 357°
2026-04-28 09:59 45.75155 5.34533 8042 ft 289 kts 354°
2026-04-28 09:59 45.76851 5.34052 7762 ft 285 kts 341°
2026-04-28 09:59 45.78460 5.33067 7463 ft 282 kts 333°
2026-04-28 10:00 45.79982 5.31915 7134 ft 281 kts 330°
2026-04-28 10:00 45.81494 5.30730 6809 ft 280 kts 330°
2026-04-28 10:00 45.82967 5.29535 6501 ft 278 kts 327°
2026-04-28 10:00 45.84335 5.28154 6193 ft 276 kts 320°
2026-04-28 10:01 45.85635 5.26545 5862 ft 275 kts 317°
2026-04-28 10:01 45.86879 5.24913 5546 ft 274 kts 317°
2026-04-28 10:01 45.88086 5.23318 5325 ft 269 kts 317°
2026-04-28 10:01 45.89298 5.21725 5099 ft 265 kts 317°
2026-04-28 10:02 45.90485 5.20173 4869 ft 261 kts 317°
2026-04-28 10:02 45.91649 5.18657 4643 ft 258 kts 317°
2026-04-28 10:02 45.92802 5.17113 4413 ft 254 kts 311°
2026-04-28 10:02 45.93557 5.15170 4150 ft 251 kts 280°
2026-04-28 10:03 45.93583 5.12999 3929 ft 246 kts 262°
2026-04-28 10:03 45.93349 5.10892 3718 ft 242 kts 259°
2026-04-28 10:03 45.92910 5.08886 3482 ft 238 kts 237°
2026-04-28 10:03 45.91920 5.07425 3276 ft 231 kts 208°
2026-04-28 10:04 45.90616 5.06844 3109 ft 225 kts 180°
2026-04-28 10:04 45.89272 5.07000 3039 ft 212 kts 170°
2026-04-28 10:04 45.88048 5.07290 2983 ft 192 kts 170°
2026-04-28 10:04 45.86922 5.07516 2972 ft 184 kts 172°
2026-04-28 10:05 45.85794 5.07690 2974 ft 184 kts 173°
2026-04-28 10:05 45.84664 5.07836 2916 ft 184 kts 174°
2026-04-28 10:05 45.83546 5.07969 2720 ft 183 kts 174°
2026-04-28 10:05 45.82408 5.08104 2504 ft 182 kts 174°
2026-04-28 10:06 45.81323 5.08235 2357 ft 171 kts 174°
2026-04-28 10:06 45.80284 5.08360 2131 ft 164 kts 174°
2026-04-28 10:06 45.79319 5.08478 1922 ft 157 kts 174°
2026-04-28 10:06 45.78392 5.08590 1746 ft 147 kts 174°
2026-04-28 10:07 45.77522 5.08696 1574 ft 136 kts 174°
2026-04-28 10:07 45.76722 5.08775 1379 ft 129 kts 175°
2026-04-28 10:07 45.75952 5.08860 1246 ft 127 kts 175°
2026-04-28 10:07 45.75178 5.08968 1130 ft 127 kts 173°
2026-04-28 10:08 45.74403 5.09073 992 ft 127 kts 174°
2026-04-28 10:08 45.73637 5.09173 831 ft 125 kts 173°
2026-04-28 10:08 45.72896 5.09269 796 ft 110 kts 176°
2026-04-28 10:08 45.72365 5.09332 810 ft 63 kts 173°
2026-04-28 10:09 45.72083 5.09277 814 ft 35 kts 198°
2026-04-28 10:09 45.71980 5.09117 813 ft 23 kts 260°
2026-04-28 10:09 45.71965 5.08918 809 ft 24 kts 264°
2026-04-28 10:09 45.71949 5.08704 805 ft 25 kts 269°
2026-04-28 10:10 45.71926 5.08496 802 ft 22 kts 221°
2026-04-28 10:10 45.71799 5.08480 803 ft 21 kts 176°
2026-04-28 10:10 45.71690 5.08440 803 ft 17 kts 247°
2026-04-28 10:10 45.71653 5.08350 804 ft 11 kts 198°
2026-04-28 10:11 45.71590 5.08326 804 ft 11 kts 195°
2026-04-28 10:11 45.71578 5.08321 803 ft 0 kts 194°